NW6UP Weather Reports


time (UTC)temp
F
wind
direction
speed
knots
gust
knots
rain 1hr
in
rain 24hr
in
rain mn
in
humidity
%
barometer
mb
20260507014425 69 33 0.9 1.7 0.00 0.00 0.00 63 1016.8
20260507012426 71 50 0.9 2.6 0.00 0.00 0.00 57
20260507010428 72 360 1.7 2.6 0.00 0.00 0.00 53
20260507004427 73 343 0.9 1.7 0.00 0.00 0.00 51 1016.7
20260507002426 74 360 0.9 1.7 0.00 0.00 0.00 50
20260507000427 75 122 0.9 2.6 0.00 0.00 0.00 49 1016.8
20260506234425 75 67 0.9 2.6 0.00 0.00 0.00 48
20260506232426 76 0 0.0 2.6 0.00 0.00 0.00 47 1017.1
20260506230426 76 22 1.7 1.7 0.00 0.00 0.00 47 1017.0
20260506224426 77 360 1.7 2.6 0.00 0.00 0.00 46 1017.2
20260506222425 78 360 1.7 1.7 0.00 0.00 0.00 44 1017.4
20260506220426 79 116 0.9 1.7 0.00 0.00 0.00 42 1017.6
20260506214426 80 123 0.0 1.7 0.00 0.00 0.00 41 1017.9
20260506212426 81 76 0.0 0.9 0.00 0.00 0.00 40 1018.1
20260506210426 82 88 0.9 1.7 0.00 0.00 0.00 39 1018.2
20260506204425 81 44 0.9 1.7 0.00 0.00 0.00 39
20260506200426 76 82 0.9 1.7 0.00 0.00 0.00 45 1018.6
20260506190428 76 0 0.0 0.0 0.00 0.00 0.00 45 1019.4
20260506180425 72 90 1.7 2.6 0.00 0.00 0.00 51 1019.9
20260506170426 66 0 0.0 0.0 0.00 0.00 0.00 61 1020.1
20260506164425 65 0 0.0 0.9 0.00 0.00 0.00 63 1020.1
20260506162426 64 0 0.0 0.0 0.00 0.00 0.00 67 1019.9
20260506160426 62 0 0.0 0.0 0.00 0.00 0.00 71
20260506154425 60 0 0.0 0.0 0.00 0.00 0.00 76
20260506152425 58 0 0.0 0.0 0.00 0.00 0.00 79
20260506150427 57 0 0.0 0.0 0.00 0.00 0.00 81 1019.7
20260506144425 57 0 0.0 0.0 0.00 0.00 0.00 82
20260506142425 56 0 0.0 0.0 0.00 0.00 0.00 83
20260506140428 56 0 0.0 0.9 0.00 0.00 0.00 83 1019.4
20260506134428 56 0 0.0 0.0 0.00 0.00 0.00 83
20260506132425 56 0 0.0 0.0 0.00 0.00 0.00 83
20260506130425 56 0 0.0 0.0 0.00 0.00 0.00 83 1019.0
20260506124425 56 0 0.0 0.0 0.00 0.00 0.00 82
20260506122425 57 0 0.0 0.0 0.00 0.00 0.00 82
20260506120426 57 0 0.0 0.0 0.00 0.00 0.00 83 1018.5
20260506114427 57 0 0.0 0.0 0.00 0.00 0.00 83
20260506110426 57 0 0.0 0.0 0.00 0.00 0.00 82 1018.4
20260506104425 57 0 0.0 0.0 0.00 0.00 0.00 82
20260506102426 57 0 0.0 0.0 0.00 0.00 0.00 82
20260506100426 57 0 0.0 0.0 0.00 0.00 0.00 81
20260506094425 57 0 0.0 0.0 0.00 0.00 0.00 80
20260506090426 57 0 0.0 0.0 0.00 0.00 0.00 79
20260506084425 57 0 0.0 0.0 0.00 0.00 0.00 80 1018.4
20260506082426 57 0 0.0 0.0 0.00 0.00 0.00 78
20260506080426 57 0 0.0 0.0 0.00 0.00 0.00 78
20260506072425 58 0 0.0 0.0 0.00 0.00 0.00 76 1017.6
20260506070426 58 0 0.0 0.0 0.00 0.00 0.00 76 1017.5
20260506062425 58 0 0.0 0.0 0.00 0.00 0.00 74 1017.4
20260506060425 59 0 0.0 0.0 0.00 0.00 0.00 73 1017.2
20260506044425 59 0 0.0 0.0 0.00 0.00 0.00 70 1016.4
20260506042426 60 0 0.0 0.0 0.00 0.00 0.00 69 1016.1
20260506040426 60 0 0.0 0.0 0.00 0.00 0.00 68 1016.0
20260506034427 60 0 0.0 0.0 0.00 0.00 0.00 68 1015.5
20260506032425 61 0 0.0 0.0 0.00 0.00 0.00 68 1015.4
20260506030426 61 0 0.0 0.0 0.00 0.00 0.00 67 1015.4
20260506024427 61 0 0.0 0.0 0.00 0.00 0.00 66
20260506022425 62 0 0.0 0.0 0.00 0.00 0.00 66
20260506020425 62 0 0.0 0.0 0.00 0.00 0.00 66